• In Netherlands
  • List of Countries
  • For 7 days
  • Water Temperature
  • Satellite Maps
  • Weather Map
  • Weather Widgets
  • user-avatar
    Login

    Hourly Weather Saidpur

    Today, 18 January, Wednesday

    Time Temperature Precipitation Wind Pressure Humidity
    00:00 +16°C° 0 mm 1 mps 759 mmHg 48%
    01:00 +16°C° 0 mm 1 mps 759 mmHg 50%
    02:00 +15°C° 0 mm 1 mps 759 mmHg 53%
    03:00 +14°C° 0 mm 1 mps 760 mmHg 55%
    04:00 +14°C° 0 mm 1 mps 760 mmHg 56%
    05:00 +13°C° 0 mm 1 mps 760 mmHg 56%
    06:00 +13°C° 0 mm 1 mps 760 mmHg 55%
    07:00 +15°C° 0 mm 1 mps 760 mmHg 48%
    08:00 +19°C° 0 mm 1 mps 761 mmHg 41%
    09:00 +22°C° 0 mm 1 mps 761 mmHg 33%
    10:00 +24°C° 0 mm 1 mps 761 mmHg 29%
    11:00 +26°C° 0 mm 1 mps 761 mmHg 24%
    12:00 +28°C° 0 mm 1 mps 761 mmHg 24%
    13:00 +29°C° 0 mm 1 mps 761 mmHg 22%
    14:00 +29°C° 0 mm 2 mps 760 mmHg 20%
    15:00 +30°C° 0 mm 2 mps 760 mmHg 19%
    16:00 +27°C° 0 mm 2 mps 760 mmHg 23%
    17:00 +24°C° 0 mm 2 mps 759 mmHg 27%
    18:00 +21°C° 0 mm 2 mps 759 mmHg 32%
    19:00 +21°C° 0 mm 1 mps 760 mmHg 34%
    20:00 +20°C° 0 mm 1 mps 760 mmHg 36%
    21:00 +20°C° 0 mm 1 mps 760 mmHg 38%
    22:00 +19°C° 0 mm 1 mps 760 mmHg 40%
    23:00 +18°C° 0 mm 1 mps 761 mmHg 42%

    Tomorrow, 19 January, Thursday

    Time Temperature Precipitation Wind Pressure Humidity
    00:00 +18°C° 0 mm 1 mps 761 mmHg 44%
    01:00 +16°C° 0 mm 1 mps 760 mmHg 45%
    02:00 +16°C° 0 mm 1 mps 760 mmHg 46%
    03:00 +15°C° 0 mm 1 mps 760 mmHg 48%
    04:00 +15°C° 0 mm 1 mps 760 mmHg 49%
    05:00 +15°C° 0 mm 1 mps 760 mmHg 51%
    06:00 +14°C° 0 mm 1 mps 760 mmHg 52%
    07:00 +16°C° 0 mm 1 mps 760 mmHg 47%
    08:00 +19°C° 0 mm 1 mps 761 mmHg 42%
    09:00 +21°C° 0 mm 1 mps 761 mmHg 37%
    10:00 +24°C° 0 mm 1 mps 761 mmHg 32%
    11:00 +26°C° 0 mm 1 mps 761 mmHg 27%
    12:00 +29°C° 0 mm 1 mps 761 mmHg 22%
    13:00 +29°C° 0 mm 1 mps 760 mmHg 20%
    14:00 +30°C° 0 mm 1 mps 759 mmHg 19%
    15:00 +30°C° 0 mm 2 mps 759 mmHg 17%
    16:00 +28°C° 0 mm 2 mps 759 mmHg 21%
    17:00 +25°C° 0 mm 2 mps 758 mmHg 24%
    18:00 +23°C° 0 mm 2 mps 758 mmHg 28%
    19:00 +21°C° 0 mm 2 mps 759 mmHg 31%
    20:00 +20°C° 0 mm 2 mps 759 mmHg 33%
    21:00 +19°C° 0 mm 2 mps 760 mmHg 35%
    22:00 +18°C° 0 mm 2 mps 760 mmHg 37%
    23:00 +18°C° 0 mm 2 mps 760 mmHg 38%

    Day after tomorrow, 20 January, Friday

    Time Temperature Precipitation Wind Pressure Humidity
    00:00 +17°C° 0 mm 2 mps 760 mmHg 39%
    01:00 +17°C° 0 mm 2 mps 760 mmHg 40%
    02:00 +16°C° 0 mm 2 mps 759 mmHg 42%
    03:00 +16°C° 0 mm 2 mps 759 mmHg 43%
    04:00 +15°C° 0 mm 1 mps 759 mmHg 46%
    05:00 +14°C° 0 mm 1 mps 759 mmHg 48%
    06:00 +14°C° 0 mm 1 mps 759 mmHg 51%
    07:00 +16°C° 0 mm 1 mps 760 mmHg 47%
    08:00 +19°C° 0 mm 1 mps 760 mmHg 43%
    09:00 +20°C° 0 mm 1 mps 761 mmHg 38%
    10:00 +23°C° 0 mm 1 mps 761 mmHg 32%
    11:00 +26°C° 0 mm 1 mps 761 mmHg 26%
    12:00 +29°C° 0 mm 1 mps 760 mmHg 20%
    13:00 +29°C° 0 mm 1 mps 760 mmHg 18%
    14:00 +29°C° 0 mm 2 mps 759 mmHg 17%
    15:00 +30°C° 0 mm 2 mps 758 mmHg 15%
    16:00 +27°C° 0 mm 2 mps 758 mmHg 19%
    17:00 +25°C° 0 mm 2 mps 758 mmHg 23%
    18:00 +21°C° 0 mm 2 mps 758 mmHg 28%
    19:00 +20°C° 0 mm 2 mps 759 mmHg 31%
    20:00 +19°C° 0 mm 2 mps 759 mmHg 34%
    21:00 +18°C° 0 mm 2 mps 760 mmHg 37%
    22:00 +18°C° 0 mm 2 mps 760 mmHg 39%
    23:00 +17°C° 0 mm 2 mps 760 mmHg 41%

    21 January, Saturday

    Time Temperature Precipitation Wind Pressure Humidity
    00:00 +16°C° 0 mm 1 mps 760 mmHg 43%
    01:00 +16°C° 0 mm 1 mps 760 mmHg 44%
    02:00 +15°C° 0 mm 1 mps 759 mmHg 45%
    03:00 +15°C° 0 mm 1 mps 759 mmHg 46%
    04:00 +15°C° 0 mm 1 mps 759 mmHg 48%
    05:00 +14°C° 0 mm 1 mps 759 mmHg 49%
    06:00 +14°C° 0 mm 1 mps 760 mmHg 51%
    07:00 +16°C° 0 mm 1 mps 760 mmHg 46%
    08:00 +19°C° 0 mm 1 mps 761 mmHg 40%
    09:00 +21°C° 0 mm 1 mps 762 mmHg 35%
    10:00 +23°C° 0 mm 1 mps 762 mmHg 30%
    11:00 +26°C° 0 mm 1 mps 762 mmHg 25%
    12:00 +29°C° 0 mm 1 mps 761 mmHg 20%
    13:00 +29°C° 0 mm 1 mps 761 mmHg 19%
    14:00 +30°C° 0 mm 1 mps 760 mmHg 17%
    15:00 +30°C° 0 mm 1 mps 759 mmHg 16%
    16:00 +28°C° 0 mm 1 mps 759 mmHg 20%
    17:00 +25°C° 0 mm 1 mps 759 mmHg 24%
    18:00 +21°C° 0 mm 2 mps 759 mmHg 27%
    19:00 +21°C° 0 mm 2 mps 760 mmHg 30%
    20:00 +20°C° 0 mm 2 mps 760 mmHg 32%
    21:00 +19°C° 0 mm 2 mps 761 mmHg 35%
    22:00 +18°C° 0 mm 2 mps 761 mmHg 36%
    23:00 +18°C° 0 mm 2 mps 761 mmHg 38%

    22 January, Sunday

    Time Temperature Precipitation Wind Pressure Humidity
    00:00 +17°C° 0 mm 2 mps 761 mmHg 40%
    01:00 +17°C° 0 mm 2 mps 761 mmHg 41%
    02:00 +16°C° 0 mm 2 mps 760 mmHg 42%
    03:00 +16°C° 0 mm 2 mps 760 mmHg 43%
    04:00 +15°C° 0 mm 1 mps 760 mmHg 44%
    05:00 +15°C° 0 mm 1 mps 761 mmHg 46%
    06:00 +14°C° 0 mm 1 mps 761 mmHg 47%
    07:00 +16°C° 0 mm 1 mps 761 mmHg 42%
    08:00 +19°C° 0 mm 1 mps 762 mmHg 37%
    09:00 +22°C° 0 mm 1 mps 763 mmHg 32%
    10:00 +24°C° 0 mm 1 mps 762 mmHg 27%
    11:00 +27°C° 0 mm 1 mps 762 mmHg 23%
    12:00 +29°C° 0 mm 2 mps 762 mmHg 19%
    13:00 +30°C° 0 mm 2 mps 761 mmHg 18%
    14:00 +30°C° 0 mm 2 mps 760 mmHg 17%
    15:00 +31°C° 0 mm 2 mps 759 mmHg 15%
    16:00 +28°C° 0 mm 2 mps 759 mmHg 19%
    17:00 +26°C° 0 mm 2 mps 759 mmHg 23%
    18:00 +23°C° 0 mm 2 mps 759 mmHg 27%
    19:00 +21°C° 0 mm 2 mps 759 mmHg 30%
    20:00 +20°C° 0 mm 2 mps 760 mmHg 33%
    21:00 +19°C° 0 mm 2 mps 760 mmHg 36%
    22:00 +19°C° 0 mm 2 mps 760 mmHg 38%
    23:00 +18°C° 0 mm 2 mps 760 mmHg 41%

    23 January, Monday

    Time Temperature Precipitation Wind Pressure Humidity
    00:00 +17°C° 0 mm 2 mps 760 mmHg 43%
    01:00 +17°C° 0 mm 2 mps 760 mmHg 44%
    02:00 +16°C° 0 mm 2 mps 760 mmHg 46%
    03:00 +16°C° 0 mm 2 mps 760 mmHg 47%
    04:00 +15°C° 0 mm 1 mps 760 mmHg 48%
    05:00 +15°C° 0 mm 1 mps 760 mmHg 48%
    06:00 +15°C° 0 mm 1 mps 760 mmHg 49%
    07:00 +16°C° 0 mm 1 mps 761 mmHg 44%
    08:00 +19°C° 0 mm 1 mps 761 mmHg 39%
    09:00 +21°C° 0 mm 1 mps 762 mmHg 34%
    10:00 +24°C° 0 mm 1 mps 762 mmHg 29%
    11:00 +27°C° 0 mm 1 mps 761 mmHg 24%
    12:00 +29°C° 0 mm 1 mps 761 mmHg 20%
    13:00 +30°C° 0 mm 1 mps 760 mmHg 18%
    14:00 +30°C° 0 mm 1 mps 759 mmHg 17%
    15:00 +31°C° 0 mm 1 mps 758 mmHg 16%
    16:00 +28°C° 0 mm 1 mps 759 mmHg 20%
    17:00 +26°C° 0 mm 1 mps 759 mmHg 24%
    18:00 +23°C° 0 mm 2 mps 759 mmHg 28%
    19:00 +21°C° 0 mm 2 mps 759 mmHg 30%
    20:00 +20°C° 0 mm 2 mps 760 mmHg 33%
    21:00 +20°C° 0 mm 2 mps 760 mmHg 36%
    22:00 +19°C° 0 mm 2 mps 760 mmHg 38%
    23:00 +18°C° 0 mm 2 mps 760 mmHg 40%
    Show more